This demonstration page uses our WeatherBlox Daily Observations layout. Learn more.

36.17497, -115.13722

Hourly Observations for May 30, 2015

Temp ( °F °C ) Dew Point ( °F °C ) Humidity (%) Winds ( mph kmh ) Pressure ( in mb ) Visibility ( mi km ) Precip ( " mm )
12:53 am 00:53 Clear 80 26.7 19 -7.2 10 10 E 7 11 29.87 1012 10 16.0934 0 0
1:53 am 01:53 Clear 79 26.1 21 -6.1 11 11 N 3 6 29.88 1012 10 16.0934 0 0
2:53 am 02:53 Clear 78 25.6 19 -7.2 11 11 Calm 29.88 1012 10 16.0934 0 0
3:53 am 03:53 Clear 78 25.6 20 -6.7 11 11 Calm 29.87 1012 10 16.0934 0 0
4:53 am 04:53 Clear 73 22.8 23 -5 15 15 N 3 6 29.89 1012 10 16.0934 0 0
5:53 am 05:53 Sunny 73 22.8 23 -5 15 15 NW 3 6 29.92 1013 10 16.0934 0 0
6:53 am 06:53 Sunny 79 26.1 23 -5 12 12 NNE 3 6 29.93 1013 10 16.0934 0 0
7:53 am 07:53 Sunny 83 28.3 21 -6.1 10 10 ESE 5 7 29.94 1014 10 16.0934 0 0
8:53 am 08:53 Sunny 85 29.4 22 -5.6 10 10 ESE 5 7 29.95 1014 10 16.0934 0 0
9:53 am 09:53 Sunny 88 31.1 21 -6.1 8 8 VRB 5 7 29.95 1014 10 16.0934 0 0
10:53 am 10:53 Sunny 91 32.8 21 -6.1 8 8 SSE 7 11 29.95 1014 10 16.0934 0 0
11:53 am 11:53 Sunny 94 34.4 22 -5.6 7 7 S 9 15 29.93 1014 10 16.0934 0 0
12:53 pm 12:53 Sunny 95 35 20 -6.7 6 6 SE 6 9 29.91 1013 10 16.0934 0 0
1:53 pm 13:53 Sunny 97 36.1 16 -8.9 5 5 VRB 3 6 29.89 1012 10 16.0934 0 0
2:53 pm 14:53 Sunny 99 37.2 10 -12.2 4 4 VRB 3 6 29.86 1011 10 16.0934 0 0
3:53 pm 15:53 Sunny 99 37.2 10 -12.2 4 4 SW 9 15 29.83 1010 10 16.0934 0 0
4:53 pm 16:53 Sunny 99 37.2 11 -11.7 4 4 SE 10 17 29.81 1010 10 16.0934 0 0
5:53 pm 17:53 Sunny 99 37.2 12 -11.1 4 4 S 8 13 29.79 1009 10 16.0934 0 0
6:53 pm 18:53 Sunny 98 36.7 19 -7.2 6 6 S 10 17 29.78 1009 10 16.0934 0 0
7:53 pm 19:53 Clear 96 35.6 22 -5.6 7 7 SSW 9 15 29.79 1009 10 16.0934 0 0
8:53 pm 20:53 Clear 94 34.4 16 -8.9 6 6 SSW 8 13 29.81 1009 10 16.0934 0 0
9:53 pm 21:53 Clear 91 32.8 14 -10 6 6 SSW 8 13 29.83 1010 10 16.0934 0 0
10:53 pm 22:53 Clear 88 31.1 15 -9.4 7 7 SW 5 7 29.83 1010 10 16.0934 0 0
11:53 pm 23:53 Clear 86 30 16 -8.9 7 7 S 6 9 29.84 1011 10 16.0934 0 0

Powered by AerisWeather